TimeMST,TemperatureF,Dew PointF,Humidity,Sea Level PressureIn,VisibilityMPH,Wind Direction,Wind SpeedMPH,Gust SpeedMPH,PrecipitationIn,Events,Conditions,WindDirDegrees,DateUTC
12:53 AM,42.1,37.0,82,30.24,10.0,SSW,4.6,-,N/A,,Overcast,200,2012-11-05 07:53:00
1:53 AM,39.0,35.1,86,30.23,10.0,Calm,Calm,-,N/A,,Clear,0,2012-11-05 08:53:00
2:53 AM,36.0,34.0,93,30.21,10.0,South,4.6,-,N/A,,Clear,190,2012-11-05 09:53:00
3:53 AM,42.1,35.1,76,30.18,10.0,South,3.5,-,N/A,,Clear,170,2012-11-05 10:53:00
4:53 AM,37.0,33.1,86,30.18,10.0,Calm,Calm,-,N/A,,Clear,0,2012-11-05 11:53:00
5:53 AM,37.0,34.0,89,30.16,10.0,South,8.1,-,N/A,,Clear,190,2012-11-05 12:53:00
6:53 AM,37.9,33.1,83,30.14,10.0,Calm,Calm,-,N/A,,Clear,0,2012-11-05 13:53:00
7:53 AM,39.0,35.1,86,30.16,10.0,Calm,Calm,-,N/A,,Clear,0,2012-11-05 14:53:00
8:53 AM,44.1,37.9,79,30.13,10.0,Calm,Calm,-,N/A,,Clear,0,2012-11-05 15:53:00
9:53 AM,50.0,42.1,74,30.09,10.0,SSW,4.6,-,N/A,,Clear,200,2012-11-05 16:53:00
10:53 AM,50.0,41.0,71,30.08,10.0,Calm,Calm,-,N/A,,Clear,0,2012-11-05 17:53:00
11:53 AM,60.1,43.0,53,30.01,10.0,Calm,Calm,-,N/A,,Clear,0,2012-11-05 18:53:00
12:53 PM,64.9,39.0,39,29.98,10.0,NNW,3.5,-,N/A,,Clear,330,2012-11-05 19:53:00
1:53 PM,69.1,35.1,29,29.97,10.0,NNE,5.8,-,N/A,,Clear,30,2012-11-05 20:53:00
2:53 PM,69.1,32.0,25,29.98,10.0,NNW,9.2,-,N/A,,Clear,330,2012-11-05 21:53:00
3:53 PM,66.0,30.0,26,29.99,10.0,NNW,15.0,27.6,N/A,,Clear,340,2012-11-05 22:53:00
4:53 PM,61.0,30.0,31,30.03,10.0,NNW,10.4,-,N/A,,Clear,340,2012-11-05 23:53:00
5:53 PM,53.1,30.0,41,30.06,10.0,NE,5.8,-,N/A,,Clear,40,2012-11-06 00:53:00
6:53 PM,54.0,30.9,41,30.06,10.0,WNW,9.2,-,N/A,,Clear,300,2012-11-06 01:53:00
7:53 PM,51.1,32.0,48,30.08,10.0,NW,9.2,-,N/A,,Clear,310,2012-11-06 02:53:00
8:53 PM,54.0,34.0,47,30.08,10.0,NNW,21.9,-,N/A,,Clear,340,2012-11-06 03:53:00
9:25 PM,51.8,37.4,58,30.12,10.0,NNE,5.8,-,N/A,,Clear,20,2012-11-06 04:25:00
9:53 PM,48.9,37.0,64,30.15,10.0,Calm,Calm,-,N/A,,Clear,0,2012-11-06 04:53:00
10:53 PM,43.0,36.0,76,30.19,10.0,NNW,8.1,-,N/A,,Clear,340,2012-11-06 05:53:00
11:53 PM,41.0,35.1,79,30.17,10.0,NW,4.6,-,N/A,,Clear,320,2012-11-06 06:53:00